Location: North Evanston
(42.0634°N, 87.6976°W)
Time: 12:08:37
(UTC+00:00)

Injun/Solrad 3 - Pass Details

Date: 16 May 2026
Orbit: 867 x 989 km, 66.8° (Epoch: 11 June)

Event Time Altitude Azimuth Distance (km) Brightness Sun altitude
Rises 05:42:24 0° 331° (NNW) 3,682 11.9 -28.8°
Reaches altitude 10° 05:45:00 10° 335° (NNW) 2,741 11.1 -28.8°
Maximum altitude 05:51:24 63° 56° (ENE) 1,096 8.3 -28.8°
Enters shadow 05:52:38 53° 103° (ESE) 1,200 8.3 -28.8°
Drops below altitude 10° 05:57:46 10° 138° (SE) 2,737 - -28.8°
Sets 06:00:22 0° 141° (SE) 3,676 - -28.7°
